Location: Ago
(8.4667°N, 4.4833°E)
Time: 23:31:12
(UTC+00:00)

ARGOS - Pass Details

Date: 18 September 2020
Orbit: 821 x 834 km, 98.4° (Epoch: 20 October)

Event Time Altitude Azimuth Distance (km) Brightness Sun altitude
Exits shadow 19:12:07 44° 46° (NE) 1,125 3.5 -23.5°
Drops below altitude 10° 19:16:19 10° 3° (N) 2,409 5.6 -24.6°
Sets 19:18:43 0° 358° (N) 3,342 6.4 -25.1°
